Location: Glencliff
(36.1226°N, 86.7183°W)
Time: 22:45:44
(UTC+00:00)

IDEFIX/ARIANE 42P - Pass Details

Date: 25 August 2019
Orbit: 786 x 802 km, 98.3° (Epoch: 16 September)

Event Time Altitude Azimuth Distance (km) Brightness Sun altitude
Rises 10:40:29 0° 357° (N) 3,299 6.0 -7.1°
Reaches altitude 10° 10:43:16 10° 343° (NNW) 2,368 5.1 -6.6°
Maximum altitude 10:47:13 22° 293° (WNW) 1,666 3.9 -5.8°
Drops below altitude 10° 10:51:11 10° 244° (WSW) 2,366 4.4 -5.1°
Enters shadow 10:52:56 - 233° (SW) 2,930 4.9 -4.7°
